[[{"header":{"parameterUnit":"m.s-1","parameterCategory":1,"la1":30.2991,"la2":30.254,"lo1":-89.0895,"lo2":-89.0444,"dy":0.0017,"dx":0.0017,"nx":28,"ny":28,"refTime":"2025-08-03T09:00:00:Z","depth":0,"parameterNumber":2,"parameterNumberName":"U-component_of_WINDS"},"data":[0,0,0,0,0,0,0,0,0,0,0,0,0,0,0,0,0,0,0,0,0,0,0,0,0,0,0,0,0,0,0,0,0,0,0,0,0,0,0,0,0,0,0,0,0,0,0,0,0,0,0,0,0,0,0,0,0,0,0.3968,0.3968,0,0.3931,0.393,0.393,0.3932,0.3932,0.3933,0.3933,0.3894,0.3893,0.3891,0,0,0,0,0,0,0,0,0,0,0,0,0,0.404,0.4039,0.3968,0.3967,0.3967,0.3931,0.393,0.393,0.3932,0.3932,0.3933,0.3934,0.3895,0.3893,0.3891,0,0,0,0,0,0,0,0,0,0,0,0,0,0.4007,0.4039,0.3968,0.3964,0.3963,0.3931,0.393,0.393,0.3932,0.3932,0.3933,0.3934,0.3895,0.3893,0.3891,0.386,0,0,0.3884,0.3883,0,0,0,0,0,0,0,0,0.4008,0.4004,0.3965,0.3964,0.3963,0.3937,0.3941,0.3906,0.3931,0.3943,0.3933,0.3934,0.3908,0.3904,0.3896,0.3859,0.3857,0.3884,0.3882,0.3881,0.388,0,0,0,0,0,0,0,0.4011,0.4006,0.3953,0.3964,0.3963,0.3963,0.396,0.3935,0.3921,0.3942,0.3943,0.3938,0.3907,0.3898,0.3895,0.3856,0.3884,0.3882,0.388,0.3879,0.3793,0.3792,0,0,0,0,0,0,0.4014,0.4007,0.3954,0.3952,0.3988,0.3962,0.3957,0.3944,0.3922,0.3919,0.3938,0.3938,0.3901,0.3897,0.3893,0.3856,0.3881,0.3879,0.3878,0.3794,0.3793,0.3792,0,0,0,0,0,0,0.4016,0.4009,0.3956,0.398,0.3973,0.3959,0.3945,0.3943,0.3934,0.3918,0.3916,0.393,0.3902,0.3897,0.3869,0.3854,0.3878,0.3876,0.3795,0.3793,0.3792,0.3781,0,0,0,0,0,0,0.4018,0.401,0.3998,0.398,0.3972,0.3932,0.3944,0.3942,0.393,0.3931,0.3911,0.3908,0.3902,0.3872,0.3866,0.3852,0.3874,0.3796,0.3794,0.3793,0.3782,0.3779,0.3777,0,0,0,0,0,0.402,0.3996,0.3998,0.3991,0.3957,0.3931,0.3926,0.392,0.3929,0.3917,0.3907,0.3909,0.3858,0.3869,0.3863,0.3847,0.3797,0.3795,0.3793,0.3784,0.378,0.3777,0,0,0,0,0,0,0.4013,0.3994,0.3995,0.3964,0.3949,0.3931,0.3916,0.3917,0.3899,0.39,0.3894,0.3889,0.3861,0.3852,0.3865,0.3817,0.3828,0.3825,0.3823,0.382,0.3817,0.3819,0.3872,0,0,0,0,0,0.4008,0.3988,0.3973,0.3947,0.394,0.3929,0.3918,0.3915,0.3899,0.3892,0.388,0.3865,0.3845,0.3832,0.3814,0.3782,0.3777,0.3768,0.3765,0.3763,0.3759,0.3742,0.3737,0.3785,0.3785,0.3785,0,0,0.3996,0.3984,0.3972,0.3945,0.3933,0.3913,0.3924,0.3902,0.3887,0.3889,0.3862,0.3853,0.3835,0.3805,0.3791,0.3796,0.3746,0.376,0.3759,0.3756,0.3739,0.3735,0.3731,0.3784,0.3784,0.3784,0,0,0.3965,0.3954,0.3931,0.3919,0.3902,0.3895,0.389,0.3872,0.3866,0.3839,0.384,0.3823,0.379,0.3777,0.3766,0.3732,0.3733,0.3726,0.371,0.3693,0.3689,0.3686,0.3673,0.3668,0.3723,0.3723,0.3723,0,0.3953,0.3923,0.3919,0.3897,0.3886,0.3888,0.3864,0.3853,0.383,0.3822,0.3829,0.3787,0.3775,0.3742,0.3734,0.3726,0.3719,0.3727,0.3691,0.3687,0.3684,0.3671,0.3666,0.3723,0.3723,0.3723,0.3723,0,0.3909,0.3888,0.3872,0.385,0.3837,0.3814,0.3807,0.3794,0.3793,0.3786,0.3759,0.3745,0.3723,0.3716,0.3714,0.3683,0.3686,0.3692,0.3703,0.3678,0.3666,0.3662,0.3721,0.3722,0.3722,0.3722,0,0,0.3869,0.3847,0.3841,0.3831,0.3812,0.3796,0.3775,0.3754,0.3743,0.3728,0.3709,0.3682,0.3687,0.3675,0.3672,0.3657,0.363,0.3664,0.3664,0.3657,0.3594,0.3589,0.3583,0.3632,0.3631,0.363,0.3595,0,0.3835,0.3796,0.3792,0.3757,0.3738,0.3741,0.3722,0.3709,0.3702,0.3685,0.3678,0.3658,0.3667,0.366,0.3646,0.3637,0.3617,0.364,0.3613,0.3612,0.3615,0.3577,0.3571,0.3538,0.3591,0.359,0.3589,0,0.3789,0.3773,0.3736,0.3721,0.3712,0.3695,0.3677,0.3661,0.3646,0.3642,0.363,0.3629,0.3607,0.3621,0.359,0.3605,0.3594,0.3589,0.3587,0.3583,0.3598,0.357,0.3528,0.3522,0.3582,0.3583,0.3583,0,0.3762,0.3731,0.3705,0.3697,0.3679,0.3667,0.3659,0.3645,0.3633,0.3617,0.361,0.3591,0.3581,0.3567,0.3562,0.3572,0.3531,0.3544,0.3526,0.3526,0.3515,0.3515,0.3468,0.3512,0.3512,0.3512,0.3512,0,0.3722,0.3699,0.3693,0.3676,0.3651,0.3648,0.3623,0.3615,0.3604,0.3586,0.3588,0.3571,0.3567,0.3549,0.3546,0.352,0.3516,0.3512,0.351,0.351,0.351,0.3501,0.3503,0.3511,0.3511,0.3511,0.3511,0,0.3686,0.3681,0.3653,0.3639,0.3635,0.3617,0.3605,0.3589,0.3584,0.3562,0.3556,0.3548,0.3527,0.3522,0.3498,0.3495,0.3465,0.3467,0.3469,0.3468,0.345,0.3451,0.3394,0.3386,0.3437,0.3436,0.3436,0,0.3661,0.3643,0.3628,0.3616,0.3608,0.3589,0.3578,0.3575,0.3562,0.3545,0.3532,0.3512,0.3496,0.3464,0.3455,0.3437,0.3437,0.3419,0.3434,0.3435,0.3435,0.3435,0.3433,0.3415,0.3414,0.3414,0.3414,0,0.3615,0.3613,0.3596,0.3579,0.3565,0.3551,0.3537,0.3528,0.3523,0.351,0.3489,0.3477,0.3453,0.3433,0.3415,0.3407,0.3409,0.3409,0.3404,0.3402,0.3403,0.3401,0.3459,0.341,0.341,0.341,0.3411,0.3411,0.3582,0.3566,0.3553,0.3534,0.3524,0.3512,0.3496,0.349,0.3473,0.3453,0.3453,0.3431,0.3418,0.3394,0.3385,0.3368,0.3373,0.3365,0.3363,0.3361,0.3358,0.3409,0.3365,0.3365,0.3365,0.3365,0.3365,0,0.3534,0.3527,0.351,0.3491,0.3476,0.3482,0.3468,0.3455,0.3435,0.3423,0.3408,0.3385,0.3366,0.3357,0.3338,0.3326,0.3327,0.3321,0.3321,0.3319,0.3355,0.3361,0.3321,0.3321,0.3321,0.3321,0.3321,0.3321,0.3508,0.3482,0.3479,0.3448,0.3441,0.3419,0.341,0.3399,0.3389,0.3364,0.3348,0.3343,0.3332,0.3313,0.3297,0.3295,0.3287,0.328,0.3278,0.3312,0.3316,0.332,0.3326,0.3279,0.3279,0.3243,0.3243,0.3243]},{"header":{"parameterUnit":"m.s-1","parameterCategory":1,"la1":30.2991,"la2":30.254,"lo1":-89.0895,"lo2":-89.0444,"dy":0.0017,"dx":0.0017,"nx":28,"ny":28,"refTime":"2025-08-03T09:00:00:Z","depth":0,"parameterNumber":3,"parameterNumberName":"V-component_of_WINDS"},"data":[0,0,0,0,0,0,0,0,0,0,0,0,0,0,0,0,0,0,0,0,0,0,0,0,0,0,0,0,0,0,0,0,0,0,0,0,0,0,0,0,0,0,0,0,0,0,0,0,0,0,0,0,0,0,0,0,0,0,-4.0613,-4.0613,0,-4.068,-4.0681,-4.0682,-4.0626,-4.0623,-4.0621,-4.0619,-4.0684,-4.0688,-4.0692,0,0,0,0,0,0,0,0,0,0,0,0,0,-4.043,-4.0434,-4.0612,-4.0613,-4.0614,-4.068,-4.0681,-4.0682,-4.0626,-4.0623,-4.062,-4.0618,-4.0683,-4.0688,-4.0692,0,0,0,0,0,0,0,0,0,0,0,0,0,-4.0505,-4.0435,-4.0612,-4.0594,-4.0593,-4.068,-4.0681,-4.0682,-4.0627,-4.0623,-4.062,-4.0616,-4.0681,-4.0687,-4.0693,-4.08,0,0,-4.0711,-4.0714,0,0,0,0,0,0,0,0,-4.0501,-4.0512,-4.0596,-4.0596,-4.0595,-4.0641,-4.0641,-4.0722,-4.0628,-4.0614,-4.0619,-4.0615,-4.0672,-4.0679,-4.0699,-4.0803,-4.0806,-4.0711,-4.0715,-4.0718,-4.0719,0,0,0,0,0,0,0,-4.0496,-4.0508,-4.0639,-4.0597,-4.0597,-4.0581,-4.0588,-4.0656,-4.0662,-4.0615,-4.0611,-4.062,-4.0671,-4.0694,-4.07,-4.0807,-4.0711,-4.0717,-4.072,-4.0722,-4.1001,-4.1004,0,0,0,0,0,0,-4.0493,-4.0504,-4.0637,-4.0641,-4.0538,-4.0588,-4.0595,-4.063,-4.0661,-4.0663,-4.0623,-4.0617,-4.0685,-4.0693,-4.0702,-4.0829,-4.0718,-4.0723,-4.0726,-4.0997,-4.1001,-4.1006,0,0,0,0,0,0,-4.0489,-4.0505,-4.0634,-4.0572,-4.0587,-4.0595,-4.0634,-4.0633,-4.0655,-4.0667,-4.0668,-4.0645,-4.0683,-4.0694,-4.0776,-4.0831,-4.0726,-4.0731,-4.0992,-4.0998,-4.1004,-4.1084,0,0,0,0,0,0,-4.0484,-4.0504,-4.0546,-4.0573,-4.0591,-4.0708,-4.0637,-4.0637,-4.0666,-4.0659,-4.0688,-4.0689,-4.0681,-4.0768,-4.0782,-4.0837,-4.0736,-4.0987,-4.0995,-4.1002,-4.1077,-4.1092,-4.1105,0,0,0,0,0,-4.0478,-4.0565,-4.0548,-4.0565,-4.0643,-4.0712,-4.0721,-4.0711,-4.0671,-4.0712,-4.072,-4.0688,-4.0823,-4.0777,-4.0792,-4.085,-4.0984,-4.0993,-4.1001,-4.107,-4.1089,-4.1105,0,0,0,0,0,0,-4.0542,-4.0568,-4.055,-4.0649,-4.0679,-4.0702,-4.0754,-4.0732,-4.0772,-4.0764,-4.0748,-4.0755,-4.0842,-4.0854,-4.0802,-4.0955,-4.0896,-4.0909,-4.0944,-4.0962,-4.0976,-4.0971,-4.0741,0,0,0,0,0,-4.0568,-4.0623,-4.0642,-4.0728,-4.0744,-4.0747,-4.0776,-4.0766,-4.0795,-4.0807,-4.0821,-4.085,-4.0898,-4.093,-4.0976,-4.1078,-4.1083,-4.1125,-4.114,-4.1151,-4.1162,-4.1217,-4.1236,-4.1034,-4.1034,-4.1034,0,0,-4.0622,-4.0643,-4.0678,-4.0741,-4.0763,-4.0819,-4.0757,-4.0819,-4.086,-4.0816,-4.0895,-4.0906,-4.0937,-4.103,-4.1071,-4.1042,-4.1219,-4.1162,-4.1172,-4.1176,-4.1228,-4.1247,-4.1264,-4.104,-4.1039,-4.1038,0,0,-4.0749,-4.077,-4.0844,-4.0868,-4.0902,-4.0903,-4.0921,-4.0948,-4.0954,-4.1033,-4.1002,-4.1049,-4.1133,-4.1157,-4.118,-4.1316,-4.1288,-4.1331,-4.1405,-4.1459,-4.1474,-4.1488,-4.1537,-4.1554,-4.1341,-4.1342,-4.1342,0,-4.0811,-4.0895,-4.0884,-4.0949,-4.0977,-4.0941,-4.1015,-4.1038,-4.1085,-4.1104,-4.1072,-4.1177,-4.1195,-4.1293,-4.1326,-4.1346,-4.1365,-4.1327,-4.1473,-4.1487,-4.15,-4.1546,-4.1564,-4.1346,-4.1346,-4.1345,-4.1345,0,-4.097,-4.1029,-4.1084,-4.1132,-4.1166,-4.1235,-4.1233,-4.1269,-4.1256,-4.126,-4.1341,-4.1362,-4.1411,-4.1433,-4.142,-4.1529,-4.151,-4.1476,-4.1417,-4.1525,-4.1567,-4.1585,-4.1354,-4.1352,-4.135,-4.1349,0,0,-4.1139,-4.118,-4.1201,-4.1222,-4.1258,-4.1302,-4.1369,-4.1418,-4.1449,-4.1483,-4.1538,-4.161,-4.1579,-4.1605,-4.1594,-4.1641,-4.1747,-4.1601,-4.1601,-4.1627,-4.1868,-4.1894,-4.1914,-4.1729,-4.1733,-4.1735,-4.1865,0,-4.1267,-4.1385,-4.1377,-4.1487,-4.1541,-4.1508,-4.1566,-4.1593,-4.1599,-4.1645,-4.165,-4.1702,-4.1657,-4.1672,-4.1718,-4.1725,-4.1795,-4.1715,-4.1779,-4.1782,-4.1773,-4.1937,-4.1964,-4.2086,-4.1882,-4.1885,-4.1887,0,-4.1432,-4.1473,-4.159,-4.1617,-4.164,-4.1692,-4.1737,-4.1781,-4.1811,-4.1812,-4.1842,-4.1823,-4.1889,-4.1829,-4.1919,-4.1865,-4.189,-4.1898,-4.1902,-4.1908,-4.1841,-4.1946,-4.2124,-4.2143,-4.1913,-4.1911,-4.1909,0,-4.1544,-4.1628,-4.1709,-4.1728,-4.1762,-4.18,-4.1815,-4.1842,-4.1872,-4.1911,-4.193,-4.1975,-4.2,-4.2034,-4.2028,-4.1985,-4.212,-4.2059,-4.2121,-4.2122,-4.2151,-4.215,-4.2336,-4.2168,-4.2168,-4.2168,-4.2167,0,-4.1688,-4.176,-4.1759,-4.1809,-4.1889,-4.1878,-4.1957,-4.1968,-4.1992,-4.2042,-4.2015,-4.2063,-4.2052,-4.2098,-4.2093,-4.2169,-4.218,-4.2182,-4.2179,-4.2184,-4.2184,-4.22,-4.2192,-4.2172,-4.2171,-4.217,-4.217,0,-4.1826,-4.1828,-4.1914,-4.194,-4.1948,-4.2006,-4.2027,-4.2073,-4.2077,-4.2141,-4.2155,-4.216,-4.2214,-4.2211,-4.2271,-4.2268,-4.2361,-4.2348,-4.2351,-4.2349,-4.2411,-4.2405,-4.2614,-4.2641,-4.2456,-4.2458,-4.2459,0,-4.1918,-4.1973,-4.2005,-4.2038,-4.2056,-4.2109,-4.214,-4.2131,-4.2164,-4.2203,-4.2244,-4.2296,-4.2336,-4.2423,-4.2432,-4.2477,-4.2466,-4.2536,-4.2472,-4.2475,-4.2467,-4.2464,-4.2469,-4.2548,-4.2551,-4.2552,-4.2554,0,-4.208,-4.2079,-4.2126,-4.2173,-4.2211,-4.2248,-4.2281,-4.2309,-4.2303,-4.2342,-4.2397,-4.2429,-4.2491,-4.2542,-4.2586,-4.26,-4.2576,-4.2574,-4.259,-4.2596,-4.2595,-4.2596,-4.2385,-4.2569,-4.2567,-4.2566,-4.2565,-4.2565,-4.2198,-4.2246,-4.2276,-4.2329,-4.2353,-4.2385,-4.243,-4.244,-4.2486,-4.2537,-4.2529,-4.2591,-4.2618,-4.2675,-4.2694,-4.2741,-4.2716,-4.274,-4.2746,-4.2752,-4.276,-4.2588,-4.2749,-4.2748,-4.2748,-4.2748,-4.2747,0,-4.2359,-4.2377,-4.2426,-4.2474,-4.2516,-4.2491,-4.2526,-4.2562,-4.2618,-4.2646,-4.2687,-4.2751,-4.28,-4.2813,-4.286,-4.2895,-4.2885,-4.2908,-4.2905,-4.2909,-4.2779,-4.276,-4.2915,-4.2915,-4.2915,-4.2915,-4.2915,-4.2915,-4.2448,-4.2527,-4.2529,-4.262,-4.2637,-4.2699,-4.2721,-4.275,-4.2773,-4.2845,-4.2887,-4.2895,-4.2917,-4.2966,-4.301,-4.3012,-4.3031,-4.3058,-4.3056,-4.2935,-4.2918,-4.2902,-4.2884,-4.3062,-4.3062,-4.3181,-4.3182,-4.3183]}]]